www.pogodaiklimat.ru
Время
и дата
18:54 30.12
19:09 30.12
19:54 30.12
20:37 30.12
20:54 30.12
21:06 30.12
21:17 30.12
21:44 30.12
21:54 30.12
22:04 30.12
22:54 30.12
23:03 30.12
23:54 30.12
00:20 31.12
00:54 31.12
01:54 31.12
02:51 31.12
02:54 31.12
03:10 31.12
03:54 31.12
04:12 31.12
04:36 31.12
04:54 31.12
05:34 31.12
05:54 31.12
06:38 31.12
06:46 31.12
06:54 31.12
07:16 31.12
07:38 31.12
07:54 31.12
08:16 31.12
08:54 31.12
09:26 31.12
09:54 31.12
10:29 31.12
10:54 31.12
11:54 31.12
12:46 31.12
12:54 31.12
13:54 31.12
14:54 31.12
15:32 31.12
15:54 31.12
16:54 31.12
17:38 31.12
17:54 31.12
18:02 31.01
Ветер
(напр.,м/с)
Видим. Явления Облачность Т
(С)
Тd
(С)
f
(%)
Тe
(С)
Тes
(С)
Комфортность P
(гПа)
Po
(гПа)
Тmin
(С)
Tmax
(С)
R
(мм)
R24
(мм)
S
(см)
В 1 6 км дымка 10/10 90 м +10.0 +8.9 93 +8 +8 1013.1 1008.2 +10.0 +11.7
В 1 6 км дымка 10/10 90 м +10.0 +8.9 93 +8 +8 1008.2
В 1 8 км дымка 10/10 120 м +10.0 +8.9 93 +8 +8 1013.4 1008.5
штиль 0 5 км дымка 10/10 240 м +10.0 +8.9 93 +9 +9 1008.5
штиль 0 5 км дымка 10/10 180 м +10.0 +9.4 96 +9 +9 1013.5 1008.5
штиль 0 5 км дымка 10/10 120 м +10.0 +9.4 96 +9 +9 1008.5
В 1 4 км дымка 10/10 120 м +10.0 +9.4 96 +8 +8 1008.5
В 1 3 км дымка 10/10 120 м +10.0 +8.9 93 +8 +8 1008.8
ЮВ 1 3 км дымка 10/10 90 м +10.0 +9.4 96 +8 +8 1013.7 1008.5
ЮВ 1 3 км дымка 10/10 90 м +10.0 +8.9 93 +8 +8 1008.5
В 1 3 км дымка 10/10 60 м +10.0 +9.4 96 +8 +8 1013.6 1008.5
В 1 2 км дымка 10/10 60 м +10.0 +9.4 96 +8 +8 1008.5
штиль 0 2 км дымка 10/10 60 м +10.0 +9.4 96 +9 +9 1013.3 1008.2
В 1 2 км дымка 10/10 180 м +10.0 +9.4 96 +8 +8 1008.2
штиль 0 2 км дымка 10/10 90 м +10.0 +9.4 96 +9 +9 1013.4 1008.5 +10.0 +10.0
С 1 2 км дымка 10/10 120 м +10.0 +9.4 96 +8 +8 1013.5 1008.5
ЮВ 1 2 км дымка 10/10 90 м +10.0 +9.0 93 +8 +8 1008.8
В 1 2 км дымка 10/10 90 м +10.0 +8.9 93 +8 +8 1013.8 1008.8
В 1 400 м туман 10/10 90 м +10.0 +9.4 96 +8 +8 1008.5
В 1 400 м туман ?/? +10.0 +8.9 93 +8 +8 1013.2 1008.2
ЮВ 1 400 м туман ?/? +10.0 +8.9 93 +8 +8 1008.2
штиль 0 400 м туман ?/? +10.0 +9.4 96 +9 +9 1008.2
штиль 0 400 м туман ?/? +10.0 +9.4 96 +9 +9 1013.2 1008.2
штиль 0 400 м туман ?/? +10.0 +8.9 93 +9 +9 1008.5
СЗ 1 400 м туман ?/? +10.0 +9.4 96 +8 +8 1014.1 1009.2
штиль 0 400 м туман 10/10 180 м +10.0 +9.4 96 +9 +9 1008.5
Ю 1 400 м туман 10/10 390 м +10.0 +9.4 96 +8 +8 1008.5
штиль 0 800 м туман 10/10 90 м +10.0 +9.4 96 +9 +9 1013.7 1008.5 +9.4 +10.0 1.5
штиль 0 2 км дымка 10/10 90 м +10.0 +9.4 96 +9 +9 1008.8
штиль 0 5 км дымка 10/10 390 м +10.0 +9.4 96 +9 +9 1009.2
штиль 0 4 км дымка 10/10 390 м +10.0 +9.4 96 +9 +9 1014.2 1009.2
штиль 0 5 км дымка 10/10 390 м +10.6 +9.4 92 +10 +10 1009.2
штиль 0 5 км дымка 10/10 420 м +10.6 +10.0 96 +10 +10 1014.7 1009.5
штиль 0 6 км дымка 10/10 120 м +11.1 +10.0 93 +10 +10 1009.9
Ю 1 6 км дымка 10/10 120 м +11.7 +10.0 89 +11 +11 1015.3 1010.2
ЮЗ 1 10 км дымка 10/10 240 м +11.7 +10.0 89 +10 +10 1010.5
ЮЗ 1 10 км дымка 10/10 240 м +11.7 +10.0 89 +11 +11 1015.3 1010.2
Ю 1 16 км 10/10 210 м +11.7 +10.0 89 +10 +10 1014.0 1008.8
Ю 1 16 км 10/10 360 м +12.2 +10.6 90 +11 +11 1008.2
ЮВ 1 16 км 10/10 360 м +12.8 +10.6 86 +12 +12 1013.0 1008.2 +10.0 +12.8
нст 1 16 км 10/10 480 м +13.3 +10.6 84 +13 +13 1012.7 1007.8
ЮВ 1 16 км 10/8 480 м
[Ac]
+13.3 +10.6 84 +13 +13 1012.0 1007.2
ЮВ 1 16 км 8/8 240 м
[Ac]
+12.8 +10.6 86 +11 +12 1007.2
ЮВ 2 16 км 10/8 240 м
[Ac]
+12.2 +10.0 86 +10 +10 1012.0 1006.8
ЮВ 1 16 км 10/10 210 м +11.7 +10.0 89 +10 +10 1012.4 1007.5
В 1 16 км 10/10 210 м +11.7 +10.0 89 +11 +11 1007.2
В 1 16 км 10/10 450 м +11.7 +10.0 89 +11 +11 1012.2 1007.2
В 1 16 км 10/10 210 м +11.7 +10.0 89 +11 +11 1007.5
Местоположение метеостанции Baltimore-Washington International Airport: широта 39.1733 долгота -76.6840 высота над уровнем моря 41 м.
В архиве по умолчанию представлена погода в Балтиморе за последние 1-2 суток. Обновление информации о фактической погоде в базе происходит ежечасно! Архивные данные за месяц целиком и за предыдущие месяцы Вы можете получить, выбрав интересующий диапазон дат из раскрывающегося списка и нажав кнопку "Ввод!".
Внимание! Архив погоды МЕТАР в базе сайта по станциям, не включенным в климатический монитор, хранится не более 60 дней. Нет смысла пытаться выбрать более раннюю дату.
*Определитесь, кто Вы:
Внимание! Время в таблицах - местное (без учета летнего времени). Для получения всемирного времени необходимо вычесть поправку, которая равна -5 ч.
Смотрите также архив погоды в соседних городах и на ближайших метеорологических станциях:
Партнеры нашего сайта:      
Пояснения к столбцам:
  • Ветер - указаны скорость ветра в м/с - средняя за 10 мин, порывы в срок и между сроками (в фигурных скобках) и направление, откуда дует ветер: С - северный,
  • СВ - северо-восточный, В - восточный, ЮВ - юго-восточный, Ю - южный, ЮЗ - юго-западный, З - западный, СЗ - северо-западный.
  • Видимость - горизонтальная дальность видимости в метрах или километрах. При видимости от 1 до 10 км при отсутствии осадков обычно наблюдается дымка, при ухудшении видимости до 1 км и менее - туман. В сухую погоду видимость может ухудшаться дымом, пылью или мглою.
  • Явления - указаны атмосферные явления, наблюдавшиеся в срок или в последний час перед сроком; фигурными скобками обозначены явления, наблюдавшиеся между сроками (за 1-3 часа до срока); квадратными скобками обозначены град или гололедные отложения с указанием их диаметра в мм.
  • Облачность - указаны через наклонную черту общая и нижняя облачность в баллах и высота нижней границы облаков в метрах; квадратными скобками обозначены формы облаков: Ci - перистые, Cs - перисто-слоистые, Cc - перисто-кучевые, Ac - высококучевые, As - высокослоистые, Sc - слоисто-кучевые, Ns - слоисто-дождевые, Cu - кучевые, Cb - кучево-дождевые. Подробнее классификацию облаков см. в Атласе облаков (PDF).
  • T - Температура воздуха - температура, измеренная на высоте 2 м над землей.
  • Td - Температура точки росы - температура, при понижении до которой содержащийся в воздухе водяной пар достигнет насыщения.
  • f - Относительная влажность воздуха - влажноcть воздуха, измеренная на высоте 2 м над землей.
  • Te - Эффективная температура - температура, которую ощущает одетый по сезону человек в тени. Характеристика душности погоды. При расчете учитывается влияние влажности воздуха и скорости ветра на теплоощущения человека.
  • Tes - Эффективная температура на солнце - температура, которую ощущает человек, с поправкой на солнечный нагрев. Характеристика знойности погоды. Зависит от высоты солнца над горизонтом, облачности и скорости ветра. Ночью, в пасмурную погоду, а также при ветре 12 м/с и более поправка равна нулю.
  • P - Атмосферное давление - приведенное к уровню моря атмосферное давление.
  • Po - Атмосферное давление - измеренное на уровне метеостанции атмосферное давление.
  • Tmin - Минимальная температура - минимум температуры воздуха на высоте 2 м над землей.
  • Tmax - Максимальная температура - максимум температуры воздуха на высоте 2 м над землей.
  • R - Количество осадков - Количество выпавших осадков за период времени, мм. При наведении курсора мыши на число - период времени, за который выпало указанное количество осадков.
  • R24 - Количество осадков - Количество выпавших осадков за 24 часа, мм.
  • S - Снежный покров - Высота снежного покрова, см. При наведении курсора мыши на число - состояние снежного покрова и степень покрытия местности в баллах.